• In Hungary
  • List of Countries
  • For 7 days
  • Water Temperature
  • Satellite Maps
  • Weather Map
  • News
  • Weather Widgets
  • user-avatar
    Login

    Hourly Weather Netesma

    Today, 23 October, Tuesday

    Time Temperature Precipitation Wind Pressure Humidity
    00:00 +5°C° 0.5 mm 4 mps 736 mmHg 90%
    01:00 +5°C° 0.5 mm 3 mps 736 mmHg 90%
    02:00 +5°C° 0.5 mm 3 mps 735 mmHg 90%
    03:00 +5°C° 0.1 mm 3 mps 735 mmHg 91%
    04:00 +4°C° 0.1 mm 3 mps 735 mmHg 91%
    05:00 +3°C° 0.1 mm 3 mps 735 mmHg 92%
    06:00 +4°C° 0 mm 2 mps 734 mmHg 92%
    07:00 +4°C° 0 mm 2 mps 734 mmHg 93%
    08:00 +3°C° 0 mm 2 mps 734 mmHg 93%
    09:00 +4°C° 0 mm 2 mps 734 mmHg 88%
    10:00 +5°C° 0 mm 2 mps 733 mmHg 83%
    11:00 +6°C° 0 mm 2 mps 733 mmHg 78%
    12:00 +6°C° 0 mm 2 mps 732 mmHg 75%
    13:00 +5°C° 0 mm 3 mps 731 mmHg 72%
    14:00 +7°C° 0 mm 3 mps 730 mmHg 68%
    15:00 +5°C° 0 mm 3 mps 729 mmHg 72%
    16:00 +4°C° 0 mm 3 mps 728 mmHg 75%
    17:00 +4°C° 0 mm 3 mps 727 mmHg 79%
    18:00 +4°C° 0 mm 3 mps 726 mmHg 79%
    19:00 +3°C° 0 mm 3 mps 725 mmHg 80%
    20:00 +3°C° 0 mm 4 mps 724 mmHg 80%
    21:00 +3°C° 0.1 mm 4 mps 723 mmHg 80%
    22:00 +3°C° 0.1 mm 4 mps 722 mmHg 79%
    23:00 +3°C° 0.1 mm 4 mps 721 mmHg 79%

    Tomorrow, 24 October, Wednesday

    Time Temperature Precipitation Wind Pressure Humidity
    00:00 +2°C° 0.3 mm 5 mps 720 mmHg 80%
    01:00 +2°C° 0.3 mm 5 mps 719 mmHg 81%
    02:00 +2°C° 0.3 mm 5 mps 718 mmHg 81%
    03:00 +2°C° 0.5 mm 5 mps 717 mmHg 82%
    04:00 +3°C° 0.5 mm 4 mps 716 mmHg 83%
    05:00 +3°C° 0.5 mm 4 mps 716 mmHg 84%
    06:00 +3°C° 0.5 mm 4 mps 715 mmHg 86%
    07:00 +3°C° 0.5 mm 4 mps 715 mmHg 87%
    08:00 +3°C° 0.5 mm 3 mps 715 mmHg 88%
    09:00 +3°C° 0.3 mm 3 mps 715 mmHg 88%
    10:00 +4°C° 0.3 mm 3 mps 715 mmHg 88%
    11:00 +5°C° 0.3 mm 2 mps 716 mmHg 88%
    12:00 +5°C° 0.2 mm 2 mps 716 mmHg 87%
    13:00 +5°C° 0.2 mm 2 mps 716 mmHg 86%
    14:00 +6°C° 0.2 mm 2 mps 716 mmHg 86%
    15:00 +5°C° 0.1 mm 2 mps 717 mmHg 88%
    16:00 +5°C° 0.1 mm 2 mps 717 mmHg 89%
    17:00 +4°C° 0.1 mm 2 mps 718 mmHg 91%
    18:00 +4°C° 0.1 mm 2 mps 718 mmHg 91%
    19:00 +4°C° 0.1 mm 2 mps 719 mmHg 92%
    20:00 +4°C° 0.1 mm 2 mps 719 mmHg 92%
    21:00 +3°C° 0.1 mm 3 mps 719 mmHg 91%
    22:00 +3°C° 0.1 mm 3 mps 720 mmHg 90%
    23:00 +3°C° 0.1 mm 3 mps 720 mmHg 89%

    Day after tomorrow, 25 October, Thursday

    Time Temperature Precipitation Wind Pressure Humidity
    00:00 +2°C° 0.2 mm 3 mps 721 mmHg 88%
    01:00 +1°C° 0.2 mm 4 mps 721 mmHg 88%
    02:00 +1°C° 0.2 mm 4 mps 721 mmHg 87%
    03:00 +1°C° 0.2 mm 4 mps 722 mmHg 87%
    04:00 +1°C° 0.2 mm 4 mps 722 mmHg 87%
    05:00 0°C° 0.2 mm 4 mps 722 mmHg 87%
    06:00 0°C° 0.1 mm 4 mps 722 mmHg 86%
    07:00 0°C° 0.1 mm 4 mps 722 mmHg 85%
    08:00 0°C° 0.1 mm 4 mps 722 mmHg 83%
    09:00 0°C° 0 mm 4 mps 722 mmHg 82%
    10:00 +1°C° 0 mm 4 mps 722 mmHg 80%
    11:00 +1°C° 0 mm 5 mps 722 mmHg 79%
    12:00 +1°C° 0 mm 5 mps 722 mmHg 78%
    13:00 +1°C° 0 mm 5 mps 722 mmHg 78%
    14:00 +1°C° 0 mm 5 mps 721 mmHg 78%
    15:00 +1°C° 0 mm 5 mps 722 mmHg 77%
    16:00 +1°C° 0 mm 5 mps 722 mmHg 77%
    17:00 +1°C° 0 mm 5 mps 722 mmHg 76%
    18:00 +1°C° 0 mm 5 mps 722 mmHg 79%
    19:00 0°C° 0 mm 4 mps 722 mmHg 81%
    20:00 0°C° 0 mm 4 mps 722 mmHg 84%
    21:00 0°C° 0 mm 4 mps 723 mmHg 86%
    22:00 0°C° 0 mm 4 mps 723 mmHg 87%
    23:00 0°C° 0 mm 4 mps 723 mmHg 89%

    26 October, Friday

    Time Temperature Precipitation Wind Pressure Humidity
    00:00 -1°C° 0 mm 4 mps 724 mmHg 89%
    01:00 -1°C° 0 mm 4 mps 724 mmHg 89%
    02:00 -1°C° 0 mm 4 mps 724 mmHg 90%
    03:00 0°C° 0 mm 3 mps 725 mmHg 91%
    04:00 0°C° 0 mm 3 mps 725 mmHg 91%
    05:00 0°C° 0 mm 3 mps 726 mmHg 92%
    06:00 0°C° 0 mm 3 mps 726 mmHg 92%
    07:00 0°C° 0 mm 3 mps 726 mmHg 91%
    08:00 0°C° 0 mm 3 mps 727 mmHg 90%
    09:00 +1°C° 0.1 mm 3 mps 727 mmHg 88%
    10:00 +1°C° 0.1 mm 3 mps 727 mmHg 86%
    11:00 0°C° 0.1 mm 4 mps 728 mmHg 85%
    12:00 +1°C° 0 mm 4 mps 728 mmHg 83%
    13:00 +1°C° 0 mm 4 mps 728 mmHg 82%
    14:00 +1°C° 0 mm 4 mps 729 mmHg 81%
    15:00 +1°C° 0.1 mm 4 mps 729 mmHg 81%
    16:00 +2°C° 0.1 mm 3 mps 729 mmHg 81%
    17:00 +2°C° 0.1 mm 3 mps 730 mmHg 81%
    18:00 +2°C° 0.1 mm 3 mps 730 mmHg 84%
    19:00 +1°C° 0.1 mm 3 mps 730 mmHg 86%
    20:00 +1°C° 0.1 mm 3 mps 731 mmHg 88%
    21:00 0°C° 0 mm 3 mps 731 mmHg 90%
    22:00 0°C° 0 mm 3 mps 732 mmHg 92%
    23:00 -1°C° 0 mm 3 mps 732 mmHg 93%

    27 October, Saturday

    Time Temperature Precipitation Wind Pressure Humidity
    00:00 -1°C° 0 mm 2 mps 733 mmHg 94%
    01:00 -1°C° 0 mm 2 mps 733 mmHg 95%
    02:00 -2°C° 0 mm 2 mps 733 mmHg 96%
    03:00 -2°C° 0 mm 2 mps 734 mmHg 96%
    04:00 -2°C° 0 mm 2 mps 734 mmHg 97%
    05:00 -2°C° 0 mm 2 mps 734 mmHg 97%
    06:00 -1°C° 0 mm 2 mps 734 mmHg 96%
    07:00 -1°C° 0 mm 2 mps 734 mmHg 94%
    08:00 0°C° 0 mm 3 mps 734 mmHg 93%
    09:00 +1°C° 0 mm 3 mps 734 mmHg 89%
    10:00 +1°C° 0 mm 4 mps 733 mmHg 85%
    11:00 +3°C° 0 mm 4 mps 733 mmHg 80%
    12:00 +2°C° 0.3 mm 5 mps 733 mmHg 81%
    13:00 +3°C° 0.3 mm 5 mps 732 mmHg 81%
    14:00 +3°C° 0.3 mm 5 mps 732 mmHg 81%
    15:00 +3°C° 0.5 mm 5 mps 731 mmHg 84%
    16:00 +3°C° 0.5 mm 5 mps 731 mmHg 86%
    17:00 +3°C° 0.5 mm 5 mps 730 mmHg 88%
    18:00 +5°C° 0.2 mm 5 mps 730 mmHg 88%
    19:00 +5°C° 0.2 mm 5 mps 730 mmHg 89%
    20:00 +5°C° 0.2 mm 5 mps 730 mmHg 89%
    21:00 +5°C° 0.1 mm 4 mps 731 mmHg 90%
    22:00 +5°C° 0.1 mm 4 mps 731 mmHg 91%
    23:00 +5°C° 0.1 mm 3 mps 731 mmHg 92%

    28 October, Sunday

    Time Temperature Precipitation Wind Pressure Humidity
    00:00 +5°C° 0.1 mm 3 mps 731 mmHg 93%
    01:00 +5°C° 0.1 mm 3 mps 731 mmHg 95%
    02:00 +5°C° 0.1 mm 2 mps 731 mmHg 96%
    03:00 +5°C° 0.1 mm 2 mps 731 mmHg 96%
    04:00 +5°C° 0.1 mm 2 mps 731 mmHg 96%
    05:00 +5°C° 0.1 mm 2 mps 732 mmHg 97%
    06:00 +6°C° 0.1 mm 1 mps 732 mmHg 97%
    07:00 +6°C° 0.1 mm 1 mps 732 mmHg 97%
    08:00 +6°C° 0.1 mm 1 mps 732 mmHg 97%
    09:00 +6°C° 0.2 mm 1 mps 732 mmHg 96%
    10:00 +7°C° 0.2 mm 1 mps 732 mmHg 94%
    11:00 +7°C° 0.2 mm 1 mps 732 mmHg 93%
    12:00 +7°C° 0.8 mm 1 mps 731 mmHg 94%
    13:00 +7°C° 0.8 mm 1 mps 731 mmHg 95%
    14:00 +7°C° 0.8 mm 1 mps 731 mmHg 96%
    15:00 +6°C° 1.5 mm 2 mps 730 mmHg 96%
    16:00 +5°C° 1.5 mm 2 mps 730 mmHg 96%
    17:00 +5°C° 1.5 mm 2 mps 729 mmHg 95%
    18:00 +5°C° 0.2 mm 2 mps 729 mmHg 95%
    19:00 +6°C° 0.2 mm 2 mps 728 mmHg 95%
    20:00 +5°C° 0.2 mm 3 mps 728 mmHg 94%
    21:00 +5°C° 0.2 mm 3 mps 728 mmHg 93%
    22:00 +6°C° 0.2 mm 4 mps 728 mmHg 92%
    23:00 +6°C° 0.2 mm 5 mps 728 mmHg 92%
    Show more